Regional Weather Roundup
Issued by NWS Newport/Morehead, NC

Current Version | Previous Version | Graphics & Text | Print | Product List | Glossary On
Versions: 1 2 3 4 5 6 7 8 9 10 11 12 13 14 15 16 17 18 19 20 21 22 23 24 25 26 27 28 29 30 31 32 33 34 35 36 37 38 39 40 41
000 ASUS42 KMHX 180225 RWRMHX WEATHER ROUNDUP FOR EASTERN NORTH CAROLINA NATIONAL WEATHER SERVICE NEWPORT/MOREHEAD CITY NC 1000 PM EDT THU AUG 17 2017 NOTE: "FAIR" INDICATES FEW OR NO CLOUDS BELOW 12,000 FEET WITH NO SIGNIFICANT WEATHER AND/OR OBSTRUCTIONS TO VISIBILITY NCZ015>017-031-032-045>047-102-103-180300- NORTH COAST CITY SKY/WX TMP DP RH WIND PRES REMARKS EDENTON CLOUDY 81 74 80 CALM 29.99F ELIZABETH CITY PTCLDY 80 76 87 S6 29.99S KITTY HAWK CLOUDY 79 73 81 CALM 29.99S MANTEO PTCLDY 82 73 76 SW12 30.00S $$ NCZ045>047-081-094-103-104-180300- CENTRAL COAST CITY SKY/WX TMP DP RH WIND PRES REMARKS FRISCO CLEAR 83 75 77 S9 30.00F $$ NCZ095-097-098-100-101-180300- SOUTHERN COAST CITY SKY/WX TMP DP RH WIND PRES REMARKS BEAUFORT MOCLDY 82 80 94 SE7 29.99F CEDAR ISLAND NOT AVBL JACKSONVILLE CLOUDY 81 80 97 S5 29.98S PINEY ISLAND PTCLDY N/A N/A N/A SE6 29.99S WILMINGTON CLOUDY 79 78 97 CALM 29.98S $$ NCZ011>013-027>030-043-044-078>080-089-090>093-098-180300- COASTAL PLAIN CITY SKY/WX TMP DP RH WIND PRES REMARKS AHOSKIE N/A 74 74 100 CALM 29.98F FOG CLINTON CLOUDY 75 75 100 CALM 29.99R ELIZABETHTOWN NOT AVBL GOLDSBORO CLEAR 76 76 100 CALM 29.98R GREENVILLE MOCLDY 81 79 94 S5 30.00S HAVELOCK MOCLDY 81 77 88 S5 30.00S KENANSVILLE CLOUDY 77 75 94 CALM 29.99R KINSTON CLOUDY 79 77 94 CALM 29.99S NEW BERN CLOUDY 79 79 100 S3 30.00R RICHLANDS PTCLDY 80 79 96 SE3 29.99R ROCKY MOUNT PTCLDY 75 75 100 CALM 29.99R WASHINGTON MOCLDY 80 77 91 S3 29.99S WHITEVILLE NOT AVBL $$ AMZ130-135-150-152-154-156-158-170-250-252-270-ANZ085-086-088-633-658-670-180300- MARINE OBSERVATIONS STATION/POSITION TIME TEMP WIND PRES WAVE SWELL AIR SEA DIR/SP/G HT/PER HT/PER (UTC) (F) (DEG/KT/KT) (MB) (FT/S) (FT/S) CHESAPEAKE LIGHT NOT AVBL 64 E VA BEACH 0050 79 80 160/ 8/ 10 1016.4 2/ 8 2/ 8 DUCK 0200 80 77 160/ 7/ 8 1015.4 2 E DUCK 0200 79 N/A 2/ 3 OREGON INLET 0200 81 84 170/ 8/ 10 1015.8 13E OREGON INLT 0148 80 N/A 2/ 6 2/ 6 HATTERAS CG 0200 83 85 170/ 6/ 10 1016.0 DIAMOND BUOY 0050 83 86 180/ 8/ 10 1016.3 2/ 7 2/ 7 CAPE LOOKOUT 0100 83 170/ 6/ 7 1015.5 BEAUFORT LAB 0200 83 82 150/ 7/ 11 1014.9 30 SE NEW RVR IN 0208 80 84 170/ 4/ 6 1016.0 30 SE NEW RVR IN 0213 84 N/A 2/ 7 27 SE WRIGHTSVLE 0208 83 83 170/ 8/ 10 1015.7 5 SE WRIGHTSVLE 0208 83 83 180/ 8/ 12 1015.3 225 S CAPE HAT 0050 81 85 250/ 14/ 19 1017.2 2/ 5 2/ 7 41 SE CHARLESTON 0140 85 85 210/ 10/ 12 1015.4 $$

USA.gov is the U.S. government's official web portal to all federal, state and local government web resources and services.